Regional Weather Roundup
Issued by NWS Northern Indiana

Home | Current Version | Previous Version | Text Only | Print | Product List | Glossary Off
Versions: 1 2 3 4 5 6 7 8 9 10 11 12 13 14 15 16 17 18 19 20 21 22 23 24 25 26 27 28 29 30 31 32 33 34 35 36 37 38 39 40 41 42 43 44 45 46 47 48 49 50

000
ASUS43 KIWX 230010
RWRIWX

KIWX WEATHER ROUNDUP
NATIONAL WEATHER SERVICE NORTHERN INDIANA
800 PM EDT FRI MAY 22 2015

NOTE: "FAIR" INDICATES FEW OR NO CLOUDS BELOW 12,000 FEET WITH NO
SIGNIFICANT WEATHER AND/OR OBSTRUCTIONS TO VISIBILITY.

* THESE STATIONS ARE NOT UNDER NWS QUALITY CONTROL. THEY ALSO MAY NOT
  REPORT WEATHER SUCH AS PRECIPITATION OR FOG.

INZ001>027-230100-
NORTHERN INDIANA

CITY           SKY/WX    TMP DP  RH WIND       PRES   REMARKS
GARY*          CLOUDY    55  36  47 NE12      30.26F
VALPARAISO     PTSUNNY   62  34  35 NE8       30.26F
6HR MIN TEMP:  61; 6HR MAX TEMP:  71;

MICHIGAN CITY* PTSUNNY   55  36  47 CALM      30.29S
LAPORTE*       PTSUNNY   63  35  36 N9        30.29R
6HR MIN TEMP:  63; 6HR MAX TEMP:  71;

KNOX*          MOSUNNY   63  32  31 N12       30.25F
SOUTH BEND     PTSUNNY   62  35  36 N7        30.29R
6HR MIN TEMP:  62; 6HR MAX TEMP:  71;

ELKHART*       MOSUNNY   63  28  27 NW5       30.29R
GOSHEN         PTCLDY    63  35  35 NW13      30.27R
6HR MIN TEMP:  63; 6HR MAX TEMP:  70;

MONTICELLO*    CLOUDY    69  36  30 NE10      30.23R
6HR MIN TEMP:  69; 6HR MAX TEMP:  76;

LOGANSPORT*    MOCLDY    68  25  19 N12       30.24R
ROCHESTER*     MOCLDY    68  32  26 N8        30.26R
WARSAW*        MOCLDY    63  36  36 N7        30.26R
ANGOLA*        CLEAR     66  43  42 N6        30.22F
FORT WAYNE     MOCLDY    67  40  37 NW3       30.25R
6HR MIN TEMP:  66; 6HR MAX TEMP:  72;

HUNTINGTON*    MOCLDY    65  36  33 NE3       30.24R
6HR MIN TEMP:  65; 6HR MAX TEMP:  72;

MARION*        MOCLDY    69  34  27 N6        30.24R
6HR MIN TEMP:  29; 6HR MAX TEMP:  86;


$$
INZ028>050-230100-
CENTRAL INDIANA

CITY           SKY/WX    TMP DP  RH WIND       PRES   REMARKS
LAFAYETTE      PTSUNNY   69  37  30 N12       30.22R
6HR MIN TEMP:  69; 6HR MAX TEMP:  75;

KOKOMO*        MOCLDY    70  37  30 N8        30.23R
6HR MIN TEMP:  70; 6HR MAX TEMP:  75;

MUNCIE*        MOCLDY    70  42  36 N7        30.23R
6HR MIN TEMP:  70; 6HR MAX TEMP:  75;

INDIANAPOLIS   CLOUDY    72  41  32 NW6       30.21S
6HR MIN TEMP:  71; 6HR MAX TEMP:  76;


$$
MIZ043>046-050>051-056>058-064>065-071>073-077>080-230100-
SOUTHWEST LOWER MICHIGAN

CITY           SKY/WX    TMP DP  RH WIND       PRES   REMARKS
BATTLE CREEK   PTCLDY    62  30  29 NW8       30.26R
6HR MIN TEMP:  62; 6HR MAX TEMP:  69;

BENTON HARBOR  PTSUNNY   56  29  35 CALM      30.29R
6HR MIN TEMP:  56; 6HR MAX TEMP:  60;

COLDWATER*     PTCLDY    62  27  27 NW10G16   30.25R
6HR MIN TEMP:  62; 6HR MAX TEMP:  67;

HILLSDALE*     CLEAR     65  30  27 NW7       30.23S
6HR MIN TEMP:  65; 6HR MAX TEMP:  69;

HOLLAND        MOSUNNY   60  28  29 NW7       30.27F
6HR MIN TEMP:  60; 6HR MAX TEMP:  63;

GRAND RAPIDS   PTSUNNY   63  26  24 NW13      30.25F
6HR MIN TEMP:  63; 6HR MAX TEMP:  68;

KALAMAZOO      PTCLDY    61  28  28 N9        30.26S
6HR MIN TEMP:  61; 6HR MAX TEMP:  70;

STURGIS*       PTCLDY    63  32  31 NW7       30.26R
THREE RIVERS*  FAIR      62  30  29 N7        30.27R
6HR MIN TEMP:  62; 6HR MAX TEMP:  68;


$$
OHZ001>008-015>018-024>025-230100-
NORTHWEST OHIO

CITY           SKY/WX    TMP DP  RH WIND       PRES   REMARKS
WAUSEON*       FAIR      66  28  24 N8        30.22S
DEFIANCE       PTCLDY    67  35  30 NW3       30.23S
6HR MIN TEMP:  66; 6HR MAX TEMP:  71;

FINDLAY        PTCLDY    67  30  25 N9        30.21S
6HR MIN TEMP:  67; 6HR MAX TEMP:  72;

TOLEDO EXPRESS CLEAR     66  31  27 N7        30.22S
6HR MIN TEMP:  66; 6HR MAX TEMP:  70;

TOLEDO METCALF CLEAR     64  33  31 NE8       30.24R
6HR MIN TEMP:  64; 6HR MAX TEMP:  70;

LIMA           MOCLDY    67  35  30 N6        30.23R
6HR MIN TEMP:  66; 6HR MAX TEMP:  71;


$$
AND FOR LAKE MICHIGAN COASTAL AND OPEN LAKE BUOY OBSERVATIONS

STATION/POSITION TEMP    WIND        PRES    VSBY  WAVE
                 AIR SEA DIR/SP/G                  HT/PER
                 (F)     (DEG/KT/KT) (MB)    (MI)  (FT/S)
CALUMET HARBOR    50      50/  8/ 10   N/A
MICHIGAN CITY     52      30/  8/  9   N/A
BURNS HARBOR      53      70/ 13/ 14 1025.4S
SAINT JOSEPH      56     360/  3/  6 1026.1R
SOUTH LAKE BUOY   42 38   70/  6/  6 1025.9R         0
4 MI NW BRIDGMAN  53 53   60/ 10/ 10   N/A           2/ 3
MICHIGAN CITY     51 51   80/  6/  8   N/A           2/ 3

$$
&&



USA.gov is the U.S. government's official web portal to all federal, state and local government web resources and services.